Starlink 11507

operational
NORAD ID: 62519 Int'l Des: 2025-004 Owner: SPXS Country: US Constellation: starlink
LEOCIRCULAR

Starlink 11507について

説明を読み込み中...

リアルタイム位置

3D地球を読み込み中...

次回通過

高度履歴

Altitude vs Time

uPlot chart will show altitude changes over time

軌道要素

1 62519U 25004J 25353.61612667 .00153142 00000-0 11696-2 0 9998
2 62519 42.9966 193.5103 0001267 199.3654 160.7165 15.70952591 54612
Epoch: Dec 19, 2025 • Age: 29 hours

現在のステータス

高度 355.1 km
速度 7.70 km/s
衛星直下点 17.85°N, 178.31°E
打ち上げ日 Jan 8, 2025
運用期間 0.9 years
タイプ internet

技術仕様

分類 Payload
質量 960.00 kg
乾燥質量 910.00 kg
総質量 960.00 kg
長さ 0.30 m
直径 4.10 m
スパン 29.00 m
形状 Box + pan
製造者 SPXS
バスタイプ Starlink V2MD
フェーズステータス In Orbit
所有者/国 SPXS/US

大規模コンステレーション

Loading constellations...